Watsonville, CA

5:27 AM PDT on October 16, 2019 (GMT -0700)
Watsonville Municipal

Weather History for KWVI - August, 2019

Change the Weather History Date:

Wednesday, August 7, 2019

  Actual Average Record
Temperature  
Mean Temperature 65 °F 63 °F  
Max Temperature 73 °F 73 °F 81 °F (2004)
Min Temperature 56 °F 53 °F 49 °F (2007)
Degree Days  
Heating Degree Days 0    
Month to date heating degree days 6  
Since 1 June heating degree days 144  
Since 1 July heating degree days 53  
Cooling Degree Days 0    
Month to date cooling degree days 3  
Year to date cooling degree days 57  
Since 1 June cooling degree days 57  
Growing Degree Days 13 (Base 50)    
Moisture  
Dew Point 55 °F    
Average Humidity 75    
Maximum Humidity 93    
Minimum Humidity 57    
Precipitation  
Precipitation 0.00 in - 0.01 in (2008)
Month to date precipitation T  
Year to date precipitation 22.76  
Sea Level Pressure  
Sea Level Pressure 29.97 in    
Wind  
Wind Speed 4 mph (SE)    
Max Wind Speed 12 mph    
Max Gust Speed 15 mph    
Visibility 8 miles    
Events      
T = Trace of Precipitation, MM = Missing Value Source: NWS Daily Summary

Daily Weather History Graph

Daily Weather History Graph

Search for Another Location

Airport or City:

Astronomy

Aug. 07, 2019 Rise Set
Actual Time 6:17 AM PDT 8:07 PM PDT
Civil Twilight 5:49 AM PDT 8:36 PM PDT
Nautical Twilight 5:14 AM PDT 9:10 PM PDT
Astronomical Twilight 4:38 AM PDT 9:46 PM PDT
Moon 1:44 PM PDT (8/7) 12:07 AM PDT (8/7)
Length of Visible Light 14h 46m
Length of Day
13h 50m
Waxing Crescent, 51% of the Moon is Illuminated
Aug 7
Waxing Crescent
Aug 15
Full
Aug 23
Last Quarter
Aug 30
New
Sep 5
First Quarter

Hourly Weather History & Observations

Time (PDT) Temp. Dew Point Humidity Pressure Visibility Wind Dir Wind Speed Gust Speed Precip Events Conditions
12:53 AM 57.9 °F 55.0 °F 90% 29.96 in 9.0 mi SE 4.6 mph - N/A   Overcast
1:53 AM 57.9 °F 55.0 °F 90% 29.96 in 8.0 mi Calm Calm - N/A   Overcast
2:53 AM 57.9 °F 55.0 °F 90% 29.96 in 6.0 mi ENE 3.5 mph - N/A   Overcast
3:53 AM 57.0 °F 55.0 °F 93% 29.96 in 4.0 mi Calm Calm - N/A   Overcast
4:53 AM 57.0 °F 54.0 °F 89% 29.96 in 4.0 mi Calm Calm - N/A   Overcast
5:53 AM 55.9 °F 54.0 °F 93% 29.96 in 5.0 mi Variable 3.5 mph - N/A   Overcast
6:53 AM 57.0 °F 54.0 °F 89% 29.97 in 2.5 mi Calm Calm - N/A   Overcast
7:32 AM 57.0 °F 55.0 °F 93% 29.98 in 4.0 mi Calm Calm - N/A   Overcast
7:53 AM 57.0 °F 55.0 °F 93% 29.98 in 5.0 mi Calm Calm - N/A   Overcast
8:53 AM 57.9 °F 55.0 °F 90% 29.99 in 7.0 mi Calm Calm - N/A   Overcast
9:53 AM 59.0 °F 55.0 °F 87% 29.99 in 10.0 mi Calm Calm - N/A   Overcast
10:53 AM 60.1 °F 55.0 °F 83% 30.00 in 10.0 mi SE 4.6 mph - N/A   Overcast
11:02 AM 60.1 °F 55.0 °F 83% 30.00 in 10.0 mi Calm Calm - N/A   Overcast
11:53 AM 63.0 °F 55.0 °F 75% 29.99 in 10.0 mi Variable 4.6 mph - N/A   Overcast
12:00 PM 64.0 °F 55.0 °F 73% 29.99 in 10.0 mi Variable 4.6 mph - N/A   Overcast
12:53 PM 68.0 °F 55.9 °F 65% 29.99 in 10.0 mi SSW 9.2 mph - N/A   Mostly Cloudy
1:41 PM 69.1 °F 55.9 °F 63% 29.99 in 10.0 mi SSW 9.2 mph - N/A   Scattered Clouds
1:53 PM 68.0 °F 55.9 °F 65% 29.98 in 10.0 mi Variable 6.9 mph - N/A   Partly Cloudy
2:53 PM 70.0 °F 55.9 °F 61% 29.97 in 10.0 mi South 6.9 mph - N/A   Clear
3:53 PM 71.1 °F 55.9 °F 59% 29.95 in 10.0 mi SSE 8.1 mph - N/A   Clear
4:53 PM 69.1 °F 55.0 °F 61% 29.94 in 10.0 mi SE 8.1 mph - N/A   Clear
5:53 PM 68.0 °F 55.0 °F 63% 29.93 in 10.0 mi ESE 9.2 mph - N/A   Clear
6:53 PM 66.9 °F 55.0 °F 66% 29.93 in 10.0 mi SE 5.8 mph - N/A   Clear
7:53 PM 64.0 °F 54.0 °F 70% 29.94 in 10.0 mi ESE 6.9 mph - N/A   Clear
8:53 PM 61.0 °F 54.0 °F 78% 29.96 in 10.0 mi East 5.8 mph - N/A   Clear
9:53 PM 60.1 °F 53.1 °F 78% 29.98 in 10.0 mi Calm Calm - N/A   Clear
10:53 PM 59.0 °F 53.1 °F 81% 29.99 in 10.0 mi Calm Calm - N/A   Clear
11:53 PM 57.0 °F 52.0 °F 83% 29.99 in 10.0 mi North 3.5 mph - N/A   Clear